OBJECT Q, 51838

Orbit data source: Space-Track

You're viewing an Uncataloged Satellite

Recently launched and/or uncataloged satellites may have evolving metadata. Metadata may include but not limited to: Owner, Maufacturer, Bus, Motor, and Mission.

OBJECT Q, 51838 is a satellite owned by Changguang WJ (CN) in SSO that was launched on Sun, 27 Feb 2022 UTC via a CHANG ZHENG 8 launch vehicle from the Wenchang Satellite Launch Center (WSC). Unknown objects in Earth's orbit typically refer to objects detected orbiting the Earth but have not yet been identified or cataloged. These objects could be anything from previously untracked satellites, spent rocket stages, debris from satellite collisions, or even natural meteoroids temporarily captured by Earth's gravity.

Loading next visibility...
OBJECT Q details
Identifier
51838, 2022-019Q
Orbit
SSO
Last TLE update8 hours ago
Origin
Flag of CNChangguang WJ (CN / PRC)
ManufacturerChangguang WJ
MissionOperational Commercial Imaging
Bus & MotorJL-1, Unknown motor
Mass43 kg wet, 43 kg dry
Launch date (UTC)
2022-02-27 (3 years ago)
Launch vehicle
CHANG ZHENG 8
Launch site
Wenchang Satellite Launch Center (WSC)
Object typeUnknown
Shape & HBRBox + 2 Pan, 1.5 m
Radar Cross Section2.000 m², Medium (>0.1 m² and < 1m²)

Expand to show TLE details & history

TLE from 8 hours ago
0 OBJECT Q
1 51838U 22019Q   25014.93073904  .00046435  00000-0  94917-3 0  9991
2 51838  97.4130  97.1586 0007438 194.0426 166.0618 15.45981090159921
Epoch: 2025-01-14T22:20Z
Definitive object data (Epoch: 2025-01-14T22:20:15.853Z)
Latitude0.00005°
Longitude7.46217°
Altitude436.537 km
Speed7.647 km/s
True Right ascension06h 28m 38s
True Declination0° 00' 00"
Sunlit
Object was in full shadow at TLE epoch
Visualization TLE readout
Latitude-24.89641°
Longitude11.231°
Altitude441.869 km
Speed7.643 km/s
Apparent Right ascension07h 01m 05s
Apparent Declination-79° 24' 12"
Sunlit
Object is in full shadow
Visualization observer readout
Local Sidereal Time06:39:07
Azimuth178.843° S
Elevation-29.362°
Doppler factor1
Orbital elements
Apogee altitude430.489 km
Perigee altitude420.368 km
Semi-major axis6,803.565 km
Eccentricity0.0007438
Inclination97.413°
RAAN97.1586°
Arg. of periapsis194.0426°
True anomaly166.08231°
Mean anomaly166.0618°
Eccentric anomaly166.07206°
Mean motion3.86757 °/min
BSTAR0.00094917
Orbital period93.08 mins
Loading maneuver chart data...
Loading historical data...
Loading historical data...
Loading historical data...
Loading historical data...
Loading historical data...
Loading historical data...
Loading historical data...

OBJECT Q Visibility forecast

Observer location: undefined°, undefined

Span
Click to sort rows by Start time (UTC) header in descending order
Start Az.
Max El. time (UTC)
Max El. Az.
Max El.
End time (UTC)
End Az.
5 mins2025-01-16 05:32:48.600Z181.786° SSW2025-01-16 05:34:48.600Z280.819° WNW41.85°2025-01-16 05:37:48.600Z341.899° N
|